User: anonymous   Login
Location: C�an Torras
(41.5052°N, 1.9280°E)
Time: 16:57:57
(UTC+00:00)
Language:

ERS-2 - Orbit

View from above orbital plane
View from above orbital plane
View from above satellite
View from above satellite

Ground track
Ground track

The orbit data is extracted from the following two-line orbital elements,

1 23560U 95021A   21113.11207724  .00001329  00000-0  58898-4 0  9992
2 23560  98.5536 315.5525 0003261 175.3339 184.7926 15.23843923389291
Epoch (UTC): 23 April 2021 02:41:23
Eccentricity: 0.0003261
inclination: 98.5536°
perigee height: 492 km
apogee height: 496 km
right ascension of ascending node: 315.5525°
argument of perigee: 175.3339°
revolutions per day: 15.23843923
mean anomaly at epoch: 184.7926°
orbit number at epoch: 38929

The dashed part of the orbit path shows where the satellite is in the earth's shadow,  

DLR